Preview of NWS' New Version of Forecast
This preview is not operational and should not be used for support decisions.

Regional Weather Roundup (RWR)

Issued by National Weather Service (NWS)

                            
000
ASUS43 KMKX 181159
RWRWI 

WISCONSIN REGIONAL WEATHER ROUNDUP
NATIONAL WEATHER SERVICE MILWAUKEE/SULLIVAN WI
700 AM CDT THU APR 18 2019

NOTE: "FAIR" INDICATES FEW OR NO CLOUDS BELOW 12,000 FEET WITH NO
SIGNIFICANT WEATHER AND/OR OBSTRUCTIONS TO VISIBILITY.

WIZ001-002-006>008-014>016-023>028-181300-
NORTHWEST WISCONSIN
  
CITY           SKY/WX    TMP DP  RH WIND       PRES   REMARKS
SUPERIOR ARPT  CLOUDY    37  35  91 CALM      29.78R                  
6HR MIN TEMP:  37; 6HR MAX TEMP:  40;                                

ASHLAND        CLOUDY    36  35  96 NW6       29.74R WCI  31          
6HR MIN TEMP:  34; 6HR MAX TEMP:  36; 6HR PCP:  0.05;                

HAYWARD        CLOUDY    36  35  96 N7        29.73R FOG     WCI  30  
6HR MIN TEMP:  36; 6HR MAX TEMP:  37; 6HR PCP: TRACE;                

SIREN          CLOUDY    37  37  98 N6        29.76R WCI  32          
CUMBERLAND     CLOUDY    36  32  87 N13       29.72R WCI  27          
RICE LAKE      CLOUDY    37  30  75 N8        29.73R WCI  31          
6HR MIN TEMP:  37; 6HR MAX TEMP:  38;                                

CHETEK         CLOUDY    36  35  94 N6        29.70R WCI  31          
LADYSMITH      CLOUDY    36  34  92 N9G17     29.69R WCI  29          
6HR MIN TEMP:  36; 6HR MAX TEMP:  38;                                

EAU CLAIRE     NOT AVBL                                               
MENOMONIE      CLOUDY    36  33  88 NW14      29.71R WCI  27          
                                      6HR PCP:  0.23;                

NEW RICHMOND   CLOUDY    39  35  85 N14       29.76R WCI  30          
6HR MIN TEMP:  38; 6HR MAX TEMP:  39;                                

OSCEOLA        CLOUDY    40  37  89 N9G16     29.78R WCI  34          
$$
 
WIZ003>005-009-010-017-018-181300-
NORTH CENTRAL WISCONSIN
  
CITY           SKY/WX    TMP DP  RH WIND       PRES   REMARKS
MANITOWISH WTR LGT SNOW  32  32 100 N7        29.64R WCI  26          
6HR MIN TEMP:  32; 6HR MAX TEMP:  37;                                

ARBOR VITAE    CLOUDY    37  35  94 N12G17    29.61F WCI  29          
6HR MIN TEMP:  34; 6HR MAX TEMP:  39;                                

WOODRUFF       CLOUDY    37  35  94 N12G17    29.61F WCI  29          
6HR MIN TEMP:  34; 6HR MAX TEMP:  39;                                

RHINELANDER    CLOUDY    36  32  85 N5        29.61R WCI  32          
6HR MIN TEMP:  35; 6HR MAX TEMP:  40;                                

EAGLE RIVER    LGT SNOW  33  33 100 N9        29.60R WCI  26          
6HR MIN TEMP:  33; 6HR MAX TEMP:  37;                                

LAND O LAKES   MIX PCPN  33  33 100 N9        29.63R WCI  26          
6HR MIN TEMP:  33; 6HR MAX TEMP:  37;                                

PHILLIPS       LGT RAIN  33  33 100 N6        29.65R WCI  27          
6HR MIN TEMP:  33; 6HR MAX TEMP:  36;                                

TOMAHAWK       CLOUDY    33  32  96 NW6       29.62R FOG     WCI  28  
MEDFORD        CLOUDY    33  33  97 N12       29.62R FOG     WCI  25  
6HR MIN TEMP:  33; 6HR MAX TEMP:  37;                                

MERRILL        CLOUDY    36  36 100 N13       29.61R WCI  27          
6HR MIN TEMP:  36; 6HR MAX TEMP:  38; 6HR PCP:  0.06;                

$$
 
WIZ029-030-035-036-043>047-181300-
CENTRAL WISCONSIN
  
CITY           SKY/WX    TMP DP  RH WIND       PRES   REMARKS
WAUSAU         CLOUDY    37  36  96 N7        29.58R FOG     WCI  32  
6HR MIN TEMP:  37; 6HR MAX TEMP:  39;                                

MOSINEE        CLOUDY    37  37 100 NW9       29.60R FOG     WCI  31  
MARSHFIELD     CLOUDY    37  37 100 NW14      29.59R FOG     WCI  28  
6HR MIN TEMP:  37; 6HR MAX TEMP:  41;                                

STEVENS POINT  CLOUDY    37  37 100 NW7       29.59R FOG     WCI  32  
6HR MIN TEMP:  37; 6HR MAX TEMP:  41;                                

WAUPACA        CLOUDY    43  42  97 NW7       29.58R                  
6HR MIN TEMP:  43; 6HR MAX TEMP:  46;                                

WAUTOMA        CLOUDY    42  40  92 W9        29.60R                  
6HR MIN TEMP:  42; 6HR MAX TEMP:  48;                                

WISC RAPIDS    CLOUDY    40  35  83 NW12      29.60R WCI  33          
6HR MIN TEMP:  40; 6HR MAX TEMP:  43;                                

CAMP DOUGLAS   NOT AVBL                                               
$$
 
WIZ011>013-019>022-031-037>040-048>050-181300-
NORTHEAST WISCONSIN
  
CITY           SKY/WX    TMP DP  RH WIND       PRES   REMARKS
ANTIGO         CLOUDY    34  34 100 N8        29.58R WCI  28          
SHAWANO        CLOUDY    41  39  92 NW6       29.57R                  
6HR MIN TEMP:  41; 6HR MAX TEMP:  46;                                

OCONTO         CLOUDY    38  37  96 NW7       29.56R WCI  33          
6HR MIN TEMP:  38; 6HR MAX TEMP:  42;                                

STURGEON BAY   FOG       37  37 100 NW13      29.55R VSB 3/4 WCI  29  
6HR MIN TEMP:  37; 6HR MAX TEMP:  42; 6HR PCP: TRACE;                

GREEN BAY      CLOUDY    42  40  92 N8        29.57R FOG              
6HR MIN TEMP:  42; 6HR MAX TEMP:  45;                                

MANITOWOC      FOG       44  43  96 NW8       29.55R VSB 3/4          
6HR MIN TEMP:  44; 6HR MAX TEMP:  50;                                

APPLETON         N/A     43  43 100 NW9       29.55R FOG              
CLINTONVILLE   CLOUDY    40  38  93 N7        29.58R FOG              
6HR MIN TEMP:  40; 6HR MAX TEMP:  44;                                

OSHKOSH        CLOUDY    44  42  93 W14G21    29.57R FOG              
6HR MIN TEMP:  44; 6HR MAX TEMP:  49;                                

$$
 
WIZ032>034-041-042-053>061-181300-
SOUTHWEST WISCONSIN
  
CITY           SKY/WX    TMP DP  RH WIND       PRES   REMARKS
LA CROSSE      CLOUDY    43  36  76 NW15      29.67R                  
6HR MIN TEMP:  42; 6HR MAX TEMP:  48;                                

SPARTA         CLOUDY    38  37  97 NW12G17   29.65R WCI  30          
VIROQUA        CLOUDY    40  40 100 NW16      29.64R WCI  32          
6HR MIN TEMP:  40; 6HR MAX TEMP:  48;                                

BOSCOBEL       LGT RAIN  46  41  82 NW8       29.64R                  
6HR MIN TEMP:  46; 6HR MAX TEMP:  53; 6HR PCP: TRACE;                

PRAIRIE DU CHI CLOUDY    44  38  81 NW9       29.65R                  
6HR MIN TEMP:  44; 6HR MAX TEMP:  50;                                

PLATTEVILLE    CLOUDY    46  45  97 W9        29.62S                  
$$

WIZ056-057-062-063-064-067-068-181300-
SOUTH CENTRAL WISCONSIN
  
CITY           SKY/WX    TMP DP  RH WIND       PRES   REMARKS
REEDSBURG      CLOUDY    42  41  95 NW7       29.61R                  
6HR MIN TEMP:  42; 6HR MAX TEMP:  54;                                

BARABOO/DELLS  CLOUDY    43  38  82 NW8       29.60R                  
6HR MIN TEMP:  43; 6HR MAX TEMP:  55;                                

LONE ROCK      NOT AVBL                                               
MINERAL POINT  CLOUDY    46  46 100 W7        29.61R                  
MADISON        CLOUDY    46  44  93 NW7       29.58R                  
6HR MIN TEMP:  46; 6HR MAX TEMP:  53; 6HR PCP:  0.01;                

MIDDLETON      CLOUDY    47  45  91 NW9       29.59R                  
WATERTOWN      CLOUDY    46  46 100 NW7       29.58R FOG              
6HR MIN TEMP:  46; 6HR MAX TEMP:  59;                                

MONROE         CLOUDY    47  45  95 MISG      29.58S FOG              
6HR MIN TEMP:  47; 6HR MAX TEMP:  56;                                

JANESVILLE     CLOUDY    52  46  82 E13       29.57S                  
$$
 
WIZ051-052-058>065-066-070>072-181300-
SOUTHEAST WISCONSIN
  
CITY           SKY/WX    TMP DP  RH WIND       PRES   REMARKS
MILWAUKEE      CLOUDY    56  47  71 W10       29.56R                  
6HR MIN TEMP:  56; 6HR MAX TEMP:  67;                                

WAUKESHA       FOG       48  46  93 NW12      29.58R VSB 1            
MILWAUKEE/TIMM CLOUDY    46  43  87 NW15      29.57R FOG              
RACINE         CLOUDY    55  47  74 W10       29.57R                  
6HR MIN TEMP:  55; 6HR MAX TEMP:  67;                                

KENOSHA        CLOUDY    54  50  86 W14       29.56R                  
6HR MIN TEMP:  54; 6HR MAX TEMP:  66;                                

FOND DU LAC    CLOUDY    46  42  86 W10       29.57R                  
6HR MIN TEMP:  46; 6HR MAX TEMP:  51; 6HR PCP: TRACE;                

SHEBOYGAN      CLOUDY    47  43  86 W10       29.55R                  
6HR MIN TEMP:  47; 6HR MAX TEMP:  60;                                

WEST BEND      CLOUDY    45  45 100 W9        29.56R                  
JUNEAU         CLOUDY    45  43  92 CALM      29.59R                  
6HR MIN TEMP:  45; 6HR MAX TEMP:  57; 6HR PCP:  0.01;                

$$

LSZ147-162-181300-
LAKE SUPERIOR
  
STATION/POSITION TIME  TEMP    WIND        PRES    WAVE
                       AIR SEA DIR/SP/G            HT/PER
                 (UTC) (F)     (DEG/KT/KT) (MB)    (FT/S)
$$
 
LMZ867-665-643>646-181300-
LAKE MICHIGAN
  
STATION/POSITION TIME  TEMP    WIND        PRES    WAVE
                       AIR SEA DIR/SP/G            HT/PER
                 (UTC) (F)     (DEG/KT/KT) (MB)    (FT/S)
NORTHPORT PIER   1140   36     290/  4/  6 1000.3R
KEWAUNEE LAKESHO 1124   41     310/  5/  8  999.6
SHEBOYGAN LAKESH 1100   50     270/ 12/ 14  999.8R
KENOSHA   LAKESH 1100   56     280/  9/ 14 1000.3
$$

TC  - TEMPERATURE IN CELSIUS
VSB - VISIBILITY IN STATUTE MILES
WCI - WIND CHILL INDEX
HX  - HEAT INDEX